When you browse on this site, cookies collect data to enhance your experience and personalize the content and advertising you see.
Visit our Privacy Policy to learn more. By continuing to use the site, you agree to this use of cookies and data.
  • en France
  • Liste des pays
  • À 7 jours
  • Température de l'eau
  • Carte météo
  • Widgets météo
  • user-avatar
    Se connecter

    Météo par heure à Tyldesley

    Ce jour, 14 Octobre, Lundi

    Heure Température Précipitation Vent Pression Humidité
    00:00 +9°C° 0 mm 2 m/s 750 mmHg 90%
    01:00 +9°C° 0 mm 2 m/s 751 mmHg 91%
    02:00 +8°C° 0 mm 2 m/s 751 mmHg 91%
    03:00 +8°C° 0 mm 2 m/s 751 mmHg 91%
    04:00 +8°C° 0 mm 2 m/s 751 mmHg 91%
    05:00 +9°C° 0 mm 2 m/s 751 mmHg 91%
    06:00 +9°C° 0 mm 2 m/s 751 mmHg 91%
    07:00 +9°C° 0 mm 2 m/s 751 mmHg 89%
    08:00 +10°C° 0 mm 2 m/s 751 mmHg 87%
    09:00 +12°C° 0 mm 2 m/s 751 mmHg 85%
    10:00 +12°C° 0 mm 3 m/s 751 mmHg 82%
    11:00 +13°C° 0 mm 3 m/s 750 mmHg 78%
    12:00 +14°C° 0 mm 4 m/s 750 mmHg 74%
    13:00 +13°C° 0 mm 4 m/s 750 mmHg 75%
    14:00 +13°C° 0 mm 4 m/s 749 mmHg 76%
    15:00 +13°C° 0 mm 4 m/s 749 mmHg 77%
    16:00 +12°C° 0 mm 4 m/s 749 mmHg 79%
    17:00 +11°C° 0 mm 4 m/s 748 mmHg 81%
    18:00 +11°C° 0 mm 4 m/s 748 mmHg 83%
    19:00 +10°C° 0.1 mm 4 m/s 748 mmHg 85%
    20:00 +10°C° 0.1 mm 4 m/s 748 mmHg 87%
    21:00 +10°C° 0.1 mm 4 m/s 747 mmHg 89%
    22:00 +10°C° 0.7 mm 3 m/s 747 mmHg 90%
    23:00 +10°C° 0.7 mm 3 m/s 747 mmHg 91%

    Demain, 15 Octobre, Mardi

    Heure Température Précipitation Vent Pression Humidité
    00:00 +10°C° 0.7 mm 3 m/s 746 mmHg 92%
    01:00 +10°C° 0.9 mm 3 m/s 746 mmHg 92%
    02:00 +10°C° 0.9 mm 2 m/s 746 mmHg 92%
    03:00 +10°C° 0.9 mm 2 m/s 745 mmHg 92%
    04:00 +10°C° 0 mm 2 m/s 746 mmHg 92%
    05:00 +11°C° 0 mm 1 m/s 746 mmHg 91%
    06:00 +10°C° 0 mm 0 m/s 746 mmHg 91%
    07:00 +11°C° 0 mm 1 m/s 746 mmHg 90%
    08:00 +12°C° 0 mm 1 m/s 746 mmHg 90%
    09:00 +12°C° 0 mm 1 m/s 746 mmHg 89%
    10:00 +13°C° 0 mm 1 m/s 746 mmHg 85%
    11:00 +14°C° 0 mm 1 m/s 746 mmHg 80%
    12:00 +15°C° 0 mm 1 m/s 746 mmHg 76%
    13:00 +15°C° 0 mm 1 m/s 746 mmHg 77%
    14:00 +15°C° 0 mm 1 m/s 746 mmHg 77%
    15:00 +15°C° 0 mm 2 m/s 746 mmHg 77%
    16:00 +14°C° 0 mm 2 m/s 746 mmHg 81%
    17:00 +13°C° 0 mm 1 m/s 746 mmHg 84%
    18:00 +12°C° 0 mm 1 m/s 746 mmHg 87%
    19:00 +12°C° 0 mm 2 m/s 746 mmHg 89%
    20:00 +12°C° 0 mm 2 m/s 747 mmHg 90%
    21:00 +10°C° 0 mm 2 m/s 747 mmHg 92%
    22:00 +10°C° 0 mm 2 m/s 747 mmHg 92%
    23:00 +10°C° 0 mm 2 m/s 746 mmHg 92%

    Après-demain, 16 Octobre, Mercredi

    Heure Température Précipitation Vent Pression Humidité
    00:00 +9°C° 0 mm 2 m/s 746 mmHg 92%
    01:00 +9°C° 0 mm 2 m/s 746 mmHg 91%
    02:00 +9°C° 0 mm 3 m/s 745 mmHg 89%
    03:00 +9°C° 0 mm 3 m/s 745 mmHg 88%
    04:00 +9°C° 0.1 mm 3 m/s 744 mmHg 88%
    05:00 +8°C° 0.1 mm 4 m/s 744 mmHg 89%
    06:00 +10°C° 0.1 mm 4 m/s 743 mmHg 89%
    07:00 +10°C° 0.5 mm 4 m/s 742 mmHg 90%
    08:00 +11°C° 0.5 mm 4 m/s 742 mmHg 91%
    09:00 +11°C° 0.5 mm 4 m/s 741 mmHg 91%
    10:00 +11°C° 0.9 mm 4 m/s 742 mmHg 92%
    11:00 +12°C° 0.9 mm 3 m/s 742 mmHg 93%
    12:00 +12°C° 0.9 mm 3 m/s 742 mmHg 94%
    13:00 +12°C° 0.3 mm 4 m/s 743 mmHg 88%
    14:00 +10°C° 0.3 mm 5 m/s 743 mmHg 83%
    15:00 +10°C° 0.3 mm 6 m/s 744 mmHg 77%
    16:00 +10°C° 0 mm 5 m/s 744 mmHg 77%
    17:00 +10°C° 0 mm 4 m/s 745 mmHg 78%
    18:00 +8°C° 0 mm 4 m/s 746 mmHg 78%
    19:00 +9°C° 0 mm 3 m/s 746 mmHg 80%
    20:00 +9°C° 0 mm 3 m/s 747 mmHg 82%
    21:00 +8°C° 0 mm 3 m/s 748 mmHg 84%
    22:00 +8°C° 0 mm 3 m/s 748 mmHg 84%
    23:00 +8°C° 0 mm 3 m/s 748 mmHg 85%

    17 Octobre, Jeudi

    Heure Température Précipitation Vent Pression Humidité
    00:00 +7°C° 0 mm 3 m/s 748 mmHg 86%
    01:00 +7°C° 0 mm 3 m/s 748 mmHg 86%
    02:00 +7°C° 0 mm 3 m/s 748 mmHg 87%
    03:00 +5°C° 0 mm 3 m/s 748 mmHg 87%
    04:00 +5°C° 0 mm 3 m/s 748 mmHg 87%
    05:00 +5°C° 0 mm 3 m/s 748 mmHg 86%
    06:00 +5°C° 0 mm 3 m/s 748 mmHg 86%
    07:00 +7°C° 0 mm 3 m/s 748 mmHg 84%
    08:00 +7°C° 0 mm 4 m/s 748 mmHg 82%
    09:00 +8°C° 0 mm 4 m/s 748 mmHg 80%
    10:00 +9°C° 0 mm 5 m/s 748 mmHg 77%
    11:00 +10°C° 0 mm 5 m/s 748 mmHg 73%
    12:00 +13°C° 0 mm 6 m/s 748 mmHg 69%
    13:00 +13°C° 0.2 mm 6 m/s 748 mmHg 70%
    14:00 +13°C° 0.2 mm 6 m/s 747 mmHg 71%
    15:00 +11°C° 0.2 mm 6 m/s 747 mmHg 72%
    16:00 +11°C° 0.3 mm 6 m/s 747 mmHg 75%
    17:00 +10°C° 0.3 mm 5 m/s 748 mmHg 78%
    18:00 +10°C° 0.3 mm 5 m/s 748 mmHg 81%
    19:00 +9°C° 0.2 mm 5 m/s 748 mmHg 82%
    20:00 +9°C° 0.2 mm 5 m/s 748 mmHg 83%
    21:00 +9°C° 0.2 mm 5 m/s 748 mmHg 84%
    22:00 +9°C° 0 mm 5 m/s 748 mmHg 83%
    23:00 +9°C° 0 mm 5 m/s 748 mmHg 83%

    18 Octobre, Vendredi

    Heure Température Précipitation Vent Pression Humidité
    00:00 +8°C° 0 mm 5 m/s 748 mmHg 83%
    01:00 +9°C° 0.2 mm 5 m/s 748 mmHg 83%
    02:00 +9°C° 0.2 mm 5 m/s 748 mmHg 84%
    03:00 +9°C° 0.2 mm 6 m/s 747 mmHg 84%
    04:00 +9°C° 0.4 mm 6 m/s 747 mmHg 84%
    05:00 +9°C° 0.4 mm 6 m/s 747 mmHg 84%
    06:00 +9°C° 0.4 mm 7 m/s 747 mmHg 84%
    07:00 +9°C° 0.2 mm 6 m/s 747 mmHg 81%
    08:00 +9°C° 0.2 mm 6 m/s 748 mmHg 79%
    09:00 +9°C° 0.2 mm 5 m/s 748 mmHg 77%
    10:00 +10°C° 0 mm 5 m/s 748 mmHg 73%
    11:00 +12°C° 0 mm 5 m/s 749 mmHg 69%
    12:00 +13°C° 0 mm 5 m/s 749 mmHg 65%
    13:00 +13°C° 0.1 mm 5 m/s 749 mmHg 66%
    14:00 +12°C° 0.1 mm 5 m/s 748 mmHg 68%
    15:00 +12°C° 0.1 mm 4 m/s 748 mmHg 69%
    16:00 +12°C° 0 mm 4 m/s 748 mmHg 71%
    17:00 +11°C° 0 mm 4 m/s 748 mmHg 74%
    18:00 +10°C° 0 mm 4 m/s 748 mmHg 76%
    19:00 +10°C° 0 mm 4 m/s 747 mmHg 77%
    20:00 +10°C° 0 mm 4 m/s 747 mmHg 78%
    21:00 +10°C° 0 mm 4 m/s 747 mmHg 79%
    22:00 +10°C° 0 mm 4 m/s 747 mmHg 81%
    23:00 +8°C° 0 mm 4 m/s 747 mmHg 83%

    19 Octobre, Samedi

    Heure Température Précipitation Vent Pression Humidité
    00:00 +8°C° 0 mm 4 m/s 746 mmHg 85%
    01:00 +8°C° 0 mm 4 m/s 746 mmHg 86%
    02:00 +8°C° 0 mm 4 m/s 746 mmHg 86%
    03:00 +8°C° 0 mm 4 m/s 745 mmHg 87%
    04:00 +8°C° 0.1 mm 4 m/s 745 mmHg 87%
    05:00 +8°C° 0.1 mm 4 m/s 745 mmHg 87%
    06:00 +8°C° 0.1 mm 4 m/s 745 mmHg 87%
    07:00 +8°C° 0.1 mm 4 m/s 745 mmHg 85%
    08:00 +10°C° 0.1 mm 4 m/s 745 mmHg 84%
    09:00 +10°C° 0.1 mm 4 m/s 745 mmHg 83%
    10:00 +11°C° 0 mm 4 m/s 745 mmHg 79%
    11:00 +12°C° 0 mm 4 m/s 745 mmHg 75%
    12:00 +13°C° 0 mm 4 m/s 745 mmHg 72%
    13:00 +13°C° 0.3 mm 4 m/s 745 mmHg 72%
    14:00 +13°C° 0.3 mm 4 m/s 745 mmHg 73%
    15:00 +13°C° 0.3 mm 4 m/s 745 mmHg 73%
    16:00 +12°C° 0.8 mm 3 m/s 745 mmHg 77%
    17:00 +11°C° 0.8 mm 3 m/s 745 mmHg 80%
    18:00 +10°C° 0.8 mm 2 m/s 745 mmHg 83%
    19:00 +10°C° 0.1 mm 2 m/s 745 mmHg 84%
    20:00 +9°C° 0.1 mm 2 m/s 745 mmHg 86%
    21:00 +9°C° 0.1 mm 2 m/s 745 mmHg 87%
    22:00 +9°C° 0 mm 2 m/s 745 mmHg 87%
    23:00 +9°C° 0 mm 2 m/s 745 mmHg 87%
    Voir plus